Terminal Aerodrome Forecast
Issued by NWS Duluth, MN

Home | Current Version | Previous Version | Text Only | Print | Product List | Glossary On
Versions: 1 2 3 4 5 6 7 8 9 10 11 12 13 14 15 16 17 18 19 20 21 22 23 24 25 26 27 28 29 30 31 32
000
FTUS43 KDLH 301721
TAFDLH
TAF
KDLH 301721Z 3018/3118 21013G20KT P6SM BKN250
     FM310000 20009KT P6SM SCT250
     FM310900 22005KT 5SM BR BKN006
     FM311400 21012KT P6SM FEW250=

USA.gov is the U.S. government's official web portal to all federal, state and local government web resources and services.